TimeEDT,TemperatureF,Dew PointF,Humidity,Sea Level PressureIn,VisibilityMPH,Wind Direction,Wind SpeedMPH,Gust SpeedMPH,PrecipitationIn,Events,Conditions,WindDirDegrees,DateUTC
12:51 AM,64.0,62.1,93,30.02,10.0,South,3.5,-,N/A,,Clear,190,2012-07-06 04:51:00
1:51 AM,64.0,61.0,90,30.01,10.0,Calm,Calm,-,N/A,,Clear,0,2012-07-06 05:51:00
2:51 AM,63.0,61.0,93,30.02,9.0,North,4.6,-,N/A,,Clear,350,2012-07-06 06:51:00
3:51 AM,63.0,61.0,93,30.02,9.0,Calm,Calm,-,N/A,,Clear,0,2012-07-06 07:51:00
4:51 AM,63.0,61.0,93,30.01,9.0,Calm,Calm,-,N/A,,Clear,0,2012-07-06 08:51:00
5:51 AM,63.0,61.0,93,30.03,9.0,South,3.5,-,N/A,,Clear,190,2012-07-06 09:51:00
6:51 AM,66.0,62.1,87,30.04,10.0,Calm,Calm,-,N/A,,Clear,0,2012-07-06 10:51:00
7:51 AM,69.1,63.0,81,30.05,10.0,Calm,Calm,-,N/A,,Clear,0,2012-07-06 11:51:00
8:51 AM,72.0,60.1,66,30.05,10.0,Calm,Calm,-,N/A,,Scattered Clouds,0,2012-07-06 12:51:00
9:51 AM,75.0,62.1,64,30.04,10.0,WNW,3.5,-,N/A,,Clear,290,2012-07-06 13:51:00
10:51 AM,79.0,62.1,56,30.03,10.0,WNW,3.5,-,N/A,,Clear,300,2012-07-06 14:51:00
11:51 AM,82.0,64.9,56,30.02,10.0,NE,3.5,-,N/A,,Clear,40,2012-07-06 15:51:00
12:51 PM,84.0,66.9,56,30.01,10.0,Calm,Calm,-,N/A,,Clear,0,2012-07-06 16:51:00
1:51 PM,87.1,66.9,51,30.00,10.0,NNW,8.1,-,N/A,,Clear,340,2012-07-06 17:51:00
2:51 PM,88.0,64.9,46,29.99,10.0,NNW,5.8,-,N/A,,Clear,340,2012-07-06 18:51:00
3:51 PM,89.1,64.9,45,29.99,10.0,North,6.9,-,N/A,,Clear,360,2012-07-06 19:51:00
4:51 PM,89.1,64.9,45,29.97,10.0,North,4.6,-,N/A,,Scattered Clouds,360,2012-07-06 20:51:00
5:51 PM,89.1,66.0,46,29.96,10.0,North,8.1,-,N/A,,Clear,350,2012-07-06 21:51:00
7:51 PM,86.0,64.9,49,29.96,10.0,NNE,3.5,-,N/A,,Clear,20,2012-07-06 23:51:00
8:51 PM,81.0,64.9,58,29.97,10.0,North,3.5,-,N/A,,Clear,360,2012-07-07 00:51:00
9:51 PM,77.0,66.9,71,29.99,10.0,Calm,Calm,-,N/A,,Clear,0,2012-07-07 01:51:00
10:51 PM,73.9,66.9,79,29.99,10.0,Calm,Calm,-,N/A,,Clear,0,2012-07-07 02:51:00
11:51 PM,72.0,66.0,81,29.99,10.0,Calm,Calm,-,N/A,,Clear,0,2012-07-07 03:51:00